Location: Newark
(25.6108°S, 54.5803°W)
Time: 14:27:06
(UTC+00:00)

Explorer 7 - Visible Passes

Search period start: 30 October 2020 00:00
Search period end: 09 November 2020 00:00
Orbit: 484 x 678 km, 50.3° (Epoch: 30 October)

Date Brightness Start Highest point End Pass type
(mag) Time Alt. Az. Time Alt. Az. Time Alt. Az.
06 Nov 10.3 07:28:23 10° S 07:29:56 11° SSE 07:31:29 10° SE visible
07 Nov 10.0 07:31:45 10° S 07:34:58 17° SE 07:38:06 10° ESE visible
07 Nov 7.8 23:05:02 10° N 23:09:01 31° NE 23:11:12 21° E visible
08 Nov 9.2 00:45:27 10° WNW 00:47:58 24° WSW 00:47:58 24° WSW visible
08 Nov 9.4 07:35:47 10° SSW 07:39:55 27° SE 07:43:52 10° E visible
08 Nov 7.1 23:09:09 10° NNW 23:13:34 58° NE 23:18:16 10° SE visible
